STARLINK-11274, 61001

Orbit data source: Space-Track

STARLINK-11274, 61001 is a payload satellite owned by SpaceX/Seattle (US) in LEO that was launched on Thu, 05 Sep 2024 UTC via an FALCON 9 launch vehicle from the Air Force Eastern Test Range (AFETR). Payload-class satellites include a variety of spacecraft equipped with specific instruments for various scientific and technological missions. These include communications satellites like Starlink; space stations such as the ISS; scientific satellites like the Hubble; Earth observation satellites from companies like Planet Labs, Umbra, and HawkEye 360; GPS; miniature CubeSats for education and research; and military/defense satellites.

Loading next visibility...
Identifier
61001, 2024-158M
Orbit
LEO
Country
Flag of USUS
Related business
Manufacturer
SpaceX/Seattle
Mission
Operational Commercial Communications
Bus & Motor
STARLINK V2MD, Unknown motor
Mass
960 kg wet, ~910 kg dry
Launch date (UTC)
2024-09-05 (1 year ago)
Launch vehicle
FALCON 9
Launch site
Air Force Eastern Test Range (AFETR)
Object type
Payload
Rocket body
Debris
Shape & HBR
Box + 2 Pan, 18.1 m
Radar Cross Section
36.964 m², Large (>1 m²)

Expand to show TLE details & history
Last TLE update: 18 hours ago

TLE from 18 hours ago
0 STARLINK-11274
1 61001U 24158M   25304.68086624 -.00000790  00000-0 -16625-5 0  9995
2 61001  53.1593 197.1320 0001248  86.3199 273.7962 15.69699260 67327
Epoch: 2025-10-31T16:20Z
TLE epoch observation values (Epoch: 2025-10-31T16:20:26.843Z)
Latitude
0.00003°
Longitude
-88.20164°
Altitude
360.617 km
Speed
7.694 km/s
True Right ascension
13h 08m 31s
True Declination
0° 00' 00"
Sunlit
Object was in daylight at epoch
Visualization orbit readout
Latitude
Unknown
Longitude
Unknown
Altitude
Unknown
Speed
Unknown
Apparent Right ascension
Unknown
Apparent Declination
Unknown
Sunlit
N/A
Visualization observer readout
Local Sidereal Time
06:09:42
Azimuth
Unknown
Elevation
Unknown
Doppler factor
Unknown
Orbital elements
Apogee altitude
360.859 km
Perigee altitude
359.177 km
Semi-major axis
6,738.155 km
Eccentricity
0.00012
Inclination
53.1593°
RAAN
197.132°
Arg. of periapsis
86.3199°
True anomaly
273.78193°
Mean anomaly
273.7962°
Eccentric anomaly
273.78907°
Mean motion
3.92402 °/min
Orbital period
91.74 mins
BSTAR
-0.0000016625
Loading maneuver chart data...
Computing Atmospheric mass density...
Loading historical data...
Loading historical data...
Loading historical data...
Loading historical data...
Loading historical data...
Loading historical data...
Loading historical data...

Documentation

Showing up to 5 results
|